Вернуться в каталог

SL-16 DEB

АктивенLEO
NORAD 22362·DEBRIS·🇷🇺 Russia

Запущен Dec 25, 1992 с Baikonur Cosmodrome

Loading…

Ближайшие Пролёты (ближайшие 24 часа)

TLE

СвежийSource: Space-Track

Эпоха: Sep 14, 2026, 11:13 UTC

1 22362U 92093BB  26257.46804780  .00000550  00000-0  42248-3 0  9990
2 22362  70.8918 288.7458 0185039  23.8949  43.1524 13.89748001693540

Отслеживайте SL-16 DEB в реальном времени с AllMySat

Download on the App Store